Weather History for Oconto, WI

Change the Weather History Date:

Sunday, December 15, 2013

  Actual Average Record
Temperature  
Mean Temperature 6 °F -  
Max Temperature 15 °F 32 °F 42 °F (2014)
Min Temperature -3 °F 14 °F -3 °F (2013)
Degree Days  
Heating Degree Days 59    
Moisture  
Dew Point 0 °F    
Average Humidity 68    
Maximum Humidity 91    
Minimum Humidity 49    
Precipitation  
Precipitation 0.00 in - - ()
Sea Level Pressure  
Sea Level Pressure 29.92 in    
Wind  
Wind Speed 9 mph (WNW)    
Max Wind Speed 17 mph    
Max Gust Speed 26 mph    
Visibility 8 miles    
Events      
Averages and records for this station are not official NWS values.
T = Trace of Precipitation, MM = Missing Value Source: NWS Daily Summary

Daily Weather History Graph

Daily Weather History Graph

Search for Another Location

Airport:

Trip Planner

Search our weather history database for the weather conditions in past years. The results will help you decide how hot, cold, wet, or windy it might be!

Date:

Astronomy

Dec. 15, 2013 Rise Set
Actual Time 7:22 AM CST 4:11 PM CST
Civil Twilight 6:49 AM CST 4:44 PM CST
Nautical Twilight 6:11 AM CST 5:21 PM CST
Astronomical Twilight 5:36 AM CST 5:57 PM CST
Moon 3:18 PM CST (12/15) 5:35 AM CST (12/15)
Length of Visible Light 9h 55m
Length of Day
8h 48m
Waxing Gibbous, 98% of the Moon is Illuminated
Dec 15
Waxing Gibbous
Dec 17
Full
Dec 25
Last Quarter
Jan 1
New
Jan 7
First Quarter

Hourly Weather History & Observations

Time (CST) Temp. Windchill Dew Point Humidity Pressure Visibility Wind Dir Wind Speed Gust Speed Precip Events Conditions
12:15 AM 14.7 °F 7.3 °F 12.2 °F 90% 29.86 in 3.0 mi West 4.6 mph - N/A   Overcast
12:35 AM 14.5 °F 8.8 °F 12.2 °F 90% 29.85 in 4.0 mi West 3.5 mph - N/A   Overcast
12:50 AM 14.5 °F 8.8 °F 12.2 °F 90% 29.85 in 4.0 mi West 3.5 mph - N/A   Overcast
1:15 AM 14.5 °F 8.8 °F 12.2 °F 90% 29.84 in 5.0 mi West 3.5 mph - N/A   Overcast
1:35 AM 14.5 °F 8.8 °F 12.2 °F 90% 29.84 in 5.0 mi WSW 3.5 mph - N/A   Overcast
1:55 AM 14.4 °F 8.6 °F 12.2 °F 91% 29.84 in 7.0 mi WSW 3.5 mph - N/A   Overcast
2:15 AM 14.7 °F 5.9 °F 12.2 °F 90% 29.84 in 10.0 mi West 5.8 mph - N/A   Overcast
2:35 AM 14.9 °F 5.0 °F 12.6 °F 90% 29.84 in 10.0 mi West 6.9 mph - N/A   Overcast
2:55 AM 15.6 °F 4.0 °F 12.7 °F 88% 29.83 in 7.0 mi West 9.2 mph - N/A   Overcast
3:15 AM 15.8 °F 3.4 °F 12.2 °F 86% 29.83 in 7.0 mi West 10.4 mph - N/A   Overcast
3:35 AM 15.6 °F 2.5 °F 10.2 °F 79% 29.83 in 10.0 mi West 11.5 mph 18.4 mph N/A   Overcast
3:55 AM 15.3 °F 2.8 °F 9.5 °F 78% 29.83 in 10.0 mi WNW 10.4 mph 16.1 mph N/A   Overcast
4:15 AM 14.7 °F 2.9 °F 9.0 °F 78% 29.83 in 10.0 mi WNW 9.2 mph - N/A   Overcast
4:35 AM 14.7 °F 2.1 °F 7.7 °F 74% 29.83 in 10.0 mi WNW 10.4 mph 18.4 mph N/A   Overcast
4:55 AM 14.0 °F -0.2 °F 6.8 °F 73% 29.84 in 10.0 mi WNW 12.7 mph 18.4 mph N/A   Overcast
5:15 AM 12.6 °F -1.4 °F 5.4 °F 73% 29.84 in 10.0 mi West 11.5 mph - N/A   Mostly Cloudy
5:35 AM 11.3 °F -2.2 °F 3.4 °F 70% 29.85 in 10.0 mi WNW 10.4 mph - N/A   Scattered Clouds
5:55 AM 10.4 °F -1.5 °F 2.8 °F 72% 29.86 in 10.0 mi WNW 8.1 mph - N/A   Clear
6:15 AM 9.5 °F -2.6 °F 2.5 °F 73% 29.87 in 10.0 mi WNW 8.1 mph - N/A   Clear
6:35 AM 8.6 °F -5.5 °F 1.9 °F 74% 29.87 in 10.0 mi WNW 10.4 mph - N/A   Clear
6:55 AM 8.1 °F -6.2 °F 0.7 °F 72% 29.86 in 10.0 mi WNW 10.4 mph - N/A   Clear
7:15 AM 7.3 °F -6.2 °F -0.0 °F 72% 29.86 in 10.0 mi West 9.2 mph - N/A   Clear
7:35 AM 5.0 °F -9.1 °F -0.4 °F 78% 29.87 in 10.0 mi West 9.2 mph - N/A   Clear
7:55 AM 5.0 °F -10.0 °F -0.6 °F 78% 29.88 in 10.0 mi West 10.4 mph - N/A   Clear
8:15 AM 5.7 °F -11.4 °F -1.3 °F 73% 29.88 in 10.0 mi West 13.8 mph - N/A   Clear
8:35 AM 6.1 °F -10.2 °F -1.7 °F 71% 29.88 in 10.0 mi West 12.7 mph 19.6 mph N/A   Clear
8:55 AM 6.6 °F -12.1 °F -1.8 °F 68% 29.88 in 10.0 mi West 17.3 mph 23.0 mph N/A   Clear
9:15 AM 7.2 °F -9.6 °F -2.2 °F 66% 29.88 in 10.0 mi West 13.8 mph 23.0 mph N/A   Clear
9:35 AM 7.7 °F -6.6 °F -1.8 °F 65% 29.89 in 10.0 mi WNW 10.4 mph 24.2 mph N/A   Clear
9:55 AM 8.2 °F -9.4 °F -1.8 °F 64% 29.89 in 10.0 mi West 16.1 mph 20.7 mph N/A   Clear
10:15 AM 8.8 °F -9.3 °F -2.2 °F 61% 29.89 in 0.2 mi West 17.3 mph 24.2 mph N/A   Unknown
10:35 AM 9.3 °F -8.0 °F -1.8 °F 61% 29.88 in 0.5 mi West 16.1 mph 19.6 mph N/A   Unknown
10:55 AM 10.0 °F -5.9 °F -1.8 °F 59% 29.88 in 0.8 mi WNW 13.8 mph 19.6 mph N/A   Unknown
11:15 AM 10.8 °F -5.6 °F -1.5 °F 58% 29.88 in 1.5 mi WNW 15.0 mph 24.2 mph N/A   Unknown
11:35 AM 11.3 °F -4.9 °F -0.9 °F 58% 29.87 in 2.0 mi West 15.0 mph 24.2 mph N/A   Clear
11:55 AM 12.2 °F -4.3 °F -1.1 °F 55% 29.87 in 5.0 mi West 16.1 mph 21.9 mph N/A   Clear
12:15 PM 12.7 °F -3.0 °F -0.8 °F 55% 29.87 in 4.0 mi West 15.0 mph 20.7 mph N/A   Clear
12:35 PM 13.1 °F -2.6 °F -1.3 °F 53% 29.87 in 7.0 mi WNW 15.0 mph 21.9 mph N/A   Clear
12:55 PM 13.1 °F -3.1 °F -1.5 °F 52% 29.87 in 4.0 mi West 16.1 mph 24.2 mph N/A   Clear
1:15 PM 13.5 °F -3.2 °F -1.8 °F 51% 29.88 in 1.8 mi WNW 17.3 mph 26.5 mph N/A   Unknown
1:35 PM 13.8 °F 1.0 °F -1.7 °F 50% 29.88 in 10.0 mi WNW 10.4 mph 20.7 mph N/A   Clear
1:55 PM 13.6 °F 0.7 °F -2.2 °F 49% 29.88 in 10.0 mi WNW 10.4 mph 18.4 mph N/A   Clear
2:15 PM 13.1 °F -3.1 °F -2.4 °F 50% 29.89 in 10.0 mi WNW 16.1 mph 24.2 mph N/A   Clear
2:35 PM 13.1 °F 1.8 °F -2.2 °F 51% 29.89 in 10.0 mi WNW 8.1 mph 20.7 mph N/A   Clear
2:55 PM 13.1 °F 0.1 °F -2.9 °F 49% 29.91 in 10.0 mi NW 10.4 mph - N/A   Clear
3:15 PM 12.6 °F -0.6 °F -2.9 °F 50% 29.92 in 10.0 mi WNW 10.4 mph 16.1 mph N/A   Clear
3:35 PM 11.7 °F -1.7 °F -3.1 °F 52% 29.93 in 10.0 mi WNW 10.4 mph - N/A   Clear
3:55 PM 10.8 °F 0.0 °F -3.1 °F 54% 29.94 in 10.0 mi WNW 6.9 mph 17.3 mph N/A   Clear
4:15 PM 9.3 °F -3.8 °F -3.6 °F 56% 29.95 in 10.0 mi WNW 9.2 mph - N/A   Clear
4:35 PM 9.0 °F -5.9 °F -3.8 °F 56% 29.96 in 10.0 mi WNW 11.5 mph - N/A   Clear
4:55 PM 8.4 °F -5.7 °F -3.8 °F 58% 29.97 in 10.0 mi West 10.4 mph - N/A   Clear
5:15 PM 8.1 °F -7.0 °F -4.0 °F 58% 29.97 in 10.0 mi WNW 11.5 mph - N/A   Clear
5:35 PM 6.8 °F -7.8 °F -4.2 °F 61% 29.98 in 10.0 mi WNW 10.4 mph - N/A   Clear
5:55 PM 6.6 °F -8.0 °F -4.2 °F 61% 29.98 in 10.0 mi WNW 10.4 mph - N/A   Clear
6:15 PM 5.9 °F -8.9 °F -4.4 °F 63% 29.99 in 10.0 mi WNW 10.4 mph 18.4 mph N/A   Clear
6:35 PM 5.7 °F -9.1 °F -4.4 °F 63% 29.99 in 10.0 mi WNW 10.4 mph 17.3 mph N/A   Clear
6:55 PM 5.4 °F -7.6 °F -4.7 °F 63% 30.01 in 10.0 mi WNW 8.1 mph - N/A   Clear
7:15 PM 4.6 °F -8.5 °F -5.1 °F 64% 30.01 in 10.0 mi WNW 8.1 mph - N/A   Clear
7:35 PM 3.9 °F -10.4 °F -5.4 °F 65% 30.02 in 10.0 mi WNW 9.2 mph - N/A   Clear
7:55 PM 3.6 °F -10.9 °F -5.4 °F 66% 30.03 in 10.0 mi WNW 9.2 mph - N/A   Clear
8:15 PM 2.8 °F -10.7 °F -5.8 °F 67% 30.03 in 10.0 mi WNW 8.1 mph - N/A   Clear
8:35 PM 2.8 °F -8.2 °F -5.8 °F 67% 30.04 in 10.0 mi WNW 5.8 mph - N/A   Clear
8:55 PM 1.9 °F -10.6 °F -6.2 °F 69% 30.05 in 10.0 mi WNW 6.9 mph - N/A   Clear
9:15 PM 1.6 °F -9.7 °F -6.3 °F 69% 30.04 in 10.0 mi WNW 5.8 mph - N/A   Clear
9:35 PM 0.5 °F -11.0 °F -7.1 °F 70% 30.05 in 10.0 mi West 5.8 mph - N/A   Clear
9:55 PM -0.4 °F -8.3 °F -6.9 °F 74% 30.06 in 10.0 mi WNW 3.5 mph - N/A   Clear
10:15 PM 0.1 °F -9.7 °F -6.7 °F 73% 30.06 in 10.0 mi WNW 4.6 mph - N/A   Clear
10:35 PM -0.8 °F -12.5 °F -7.4 °F 73% 30.06 in 10.0 mi WNW 5.8 mph - N/A   Clear
10:55 PM -1.3 °F -9.3 °F -7.2 °F 76% 30.07 in 10.0 mi WNW 3.5 mph - N/A   Clear
11:15 PM -3.6 °F -17.3 °F -8.9 °F 78% 30.07 in 10.0 mi West 6.9 mph - N/A   Clear
11:35 PM -2.6 °F -14.6 °F -8.0 °F 78% 30.07 in 10.0 mi West 5.8 mph - N/A   Clear
11:55 PM -2.7 °F -13.1 °F -8.0 °F 78% 30.07 in 10.0 mi WNW 4.6 mph - N/A   Clear